Sirius FM-6

operational
NORAD ID: 39360 Int'l Des: 2013-058 Owner: SIRX Country: US
HEOCIRCULARGSOGEO

关于 Sirius FM-6

正在加载描述...

实时位置

正在加载3D地球...

即将过境

高度历史

Altitude vs Time

uPlot chart will show altitude changes over time

两行轨道根数

1 39360U 13058A 26061.14906147 -.00000034 00000-0 00000+0 0 9992
2 39360 0.0218 128.4573 0002805 54.3449 274.6060 1.00268934 44992
Epoch: Mar 2, 2026 • Age: 42 hours

当前状态

高度 35794.3 km
速度 3.07 km/s
星下点 0.00°N, 116.16°W
发射日期 Oct 25, 2013
运行时间 12.3 years
类型 other

技术详情

分类 Payload
质量 3800.00 kg
干质量 1500.00 kg
总质量 3800.00 kg
长度 5.20 m
直径 5.60 m
跨度 24.80 m
形状 Box+2 panels
制造商 SSL
平台类型 FS-1300
阶段状态 In Orbit
所有者/国家 SIRX/US

大型星座

Loading constellations...